Location: Ecklingerode
(51.5036°N, 10.3122°E)
Time: 07:44:27
(UTC+00:00)

Lacrosse 5 - Pass Details

Date: 29 October 2020
Orbit: 714 x 725 km, 57.0° (Epoch: 30 November)

Event Time Altitude Azimuth Distance (km) Brightness Sun altitude
Rises 16:28:35 0° 273° (W) 3,117 6.8 -5.6°
Reaches altitude 10° 16:31:03 10° 280° (W) 2,197 5.6 -5.9°
Maximum altitude 16:35:55 46° 353° (N) 962 2.5 -6.7°
Drops below altitude 10° 16:40:47 10° 67° (ENE) 2,199 3.7 -7.4°
Enters shadow 16:41:02 - 68° (ENE) 2,292 3.8 -7.5°
